Lapse_Rate
5.8 5.7 5.6 5.6 5.8 6.0 6.1 6.0 6.1 6.2 6.4 6.4 6.6 6.7 6.8 6.8 6.9 7.0 7.1 7.0 7.1 7.5 8.0 8.3 8.4 8.4 8.4 8.9 8.9 8.7 8.7 9.1 9.4 9.1 8.6 8.4 7.9 7.0 6.5 6.0 5.7 5.6 6.3 5.9 5.4
5.3 5.5 5.3 5.3 5.3 5.5 5.7 5.9 5.8 5.8 6.0 6.2 6.2 6.4 6.6 6.8 6.9 7.2 7.1 7.1 7.2 7.4 7.9 7.9 8.2 8.0 8.4 8.6 8.7 9.0 9.5 9.4 9.3 9.0 8.8 8.2 7.6 6.9 7.2 6.6 7.2 6.9 6.3 6.0 5.8
5.3 5.2 5.3 5.0 5.0 5.2 5.3 5.5 5.7 5.7 5.7 5.9 6.1 6.2 6.4 6.6 6.8 7.1 7.1 7.2 7.2 7.4 7.9 7.9 8.2 8.5 8.5 8.8 9.4 9.4 9.7 9.6 9.5 9.0 9.1 8.5 8.2 7.5 7.2 7.0 7.0 7.3 7.3 6.5 6.2
5.4 5.3 5.2 5.2 4.9 4.9 5.1 5.3 5.6 5.7 5.8 5.9 6.0 6.1 6.3 6.5 6.5 6.7 6.9 7.1 7.2 7.3 8.0 8.1 8.5 9.1 8.7 8.9 9.5 9.6 9.6 9.5 9.3 9.4 9.1 8.3 8.0 7.5 7.4 7.4 7.2 7.0 7.0 6.6 5.7
5.4 5.3 5.2 5.2 5.2 4.9 5.0 5.2 5.4 5.7 5.8 5.9 6.0 6.1 6.3 6.5 6.6 6.4 6.9 7.2 7.2 7.4 7.9 8.4 8.7 8.7 8.2 9.1 9.4 9.8 9.7 9.2 9.4 9.2 8.8 8.0 8.0 7.6 7.2 7.1 7.2 7.1 6.6 6.7 5.9
5.5 5.3 5.3 5.2 5.2 5.1 5.0 5.1 5.4 5.6 5.8 6.0 6.0 6.0 6.3 6.5 6.8 6.7 7.0 7.3 7.4 7.3 7.8 8.2 8.7 8.5 8.5 9.1 9.8 9.7 9.7 9.3 9.3 9.4 9.0 8.3 8.2 8.1 7.0 7.2 7.0 6.9 6.5 6.0 6.0
5.7 5.5 5.3 5.3 5.3 5.3 5.2 5.1 5.4 5.5 5.8 6.0 6.1 6.1 6.3 6.3 6.8 6.7 7.1 7.3 7.4 7.6 7.9 7.9 8.0 7.8 8.1 9.1 9.7 9.7 9.6 9.4 9.4 9.5 8.8 8.6 7.8 7.1 7.0 7.4 7.4 6.7 6.2 5.5 5.6
6.0 5.8 5.5 5.3 5.3 5.3 5.3 5.2 5.4 5.6 5.7 5.8 6.0 6.2 6.3 6.3 6.4 7.2 7.1 7.3 7.4 7.6 7.9 7.7 8.2 7.5 7.7 8.9 9.3 9.5 9.6 9.6 9.5 9.4 8.8 8.8 8.2 8.3 7.3 7.5 6.7 6.8 6.0 5.8 5.7
6.6 6.1 5.9 5.6 5.4 5.4 5.4 5.3 5.4 5.6 5.7 5.8 6.0 6.3 6.5 6.8 6.9 7.0 7.1 7.3 7.3 7.5 7.5 7.4 7.4 8.0 7.8 8.5 8.9 9.3 9.4 9.6 9.4 9.4 9.3 9.4 8.6 7.8 7.3 8.0 7.3 6.8 6.3 6.0 5.9
7.1 6.7 6.2 6.0 5.7 5.5 5.4 5.5 5.5 5.6 5.6 5.7 6.1 6.3 6.8 6.9 6.9 7.1 7.1 7.0 7.1 7.2 7.3 7.2 7.4 7.8 8.1 8.0 8.3 9.3 9.6 9.4 9.6 9.4 9.2 9.3 8.4 8.5 7.6 7.9 7.8 7.1 7.0 6.3 6.1
6.9 7.1 6.8 6.3 5.9 5.9 5.6 5.6 5.4 5.2 5.0 5.5 5.8 6.4 6.2 6.4 6.8 7.1 7.0 6.9 6.5 6.8 7.0 7.3 7.2 7.7 8.4 8.4 9.2 9.4 9.8 9.7 9.5 9.5 9.2 9.0 8.6 8.4 8.4 7.5 7.4 7.3 7.5 7.3 6.8
6.4 6.8 7.1 6.8 6.3 6.0 6.0 5.9 5.2 4.6 5.3 5.8 5.9 6.5 6.4 6.0 6.0 6.8 6.7 6.5 6.4 6.9 6.7 6.8 7.3 8.1 8.6 8.8 9.2 9.3 9.4 9.6 9.6 9.5 9.5 9.0 8.9 8.7 8.3 7.3 7.1 7.7 7.7 7.8 7.5
6.2 6.5 6.9 7.1 6.9 6.5 6.1 5.9 5.6 5.4 5.2 6.3 6.2 6.3 6.5 6.5 6.2 6.7 6.9 6.9 6.7 6.6 6.7 7.1 8.0 8.4 8.5 8.6 9.4 9.5 9.4 9.5 9.5 9.4 9.4 9.4 9.0 8.8 8.5 8.0 7.8 7.8 8.3 8.1 8.0
6.0 6.3 6.5 6.8 7.3 6.8 6.1 5.9 5.6 5.1 4.6 6.2 6.4 6.9 6.4 6.5 6.4 6.5 6.9 7.1 6.6 6.9 7.1 7.4 8.4 8.2 8.9 8.7 9.5 9.6 9.6 9.5 9.6 9.5 9.5 9.4 9.0 8.8 8.8 8.6 8.1 8.0 7.9 8.5 8.5
5.8 6.1 6.2 6.6 6.9 7.2 6.5 6.7 6.2 5.7 4.8 7.4 7.4 7.5 7.2 6.5 7.0 6.6 6.9 6.6 6.8 7.1 6.9 7.4 8.0 7.7 8.8 9.4 9.7 9.5 9.5 9.5 9.8 9.8 9.7 9.6 9.5 8.9 8.8 8.6 8.5 8.4 8.5 8.3 7.5
5.6 5.7 6.2 6.4 6.7 6.8 7.1 6.7 6.2 5.9 5.5 7.7 8.0 7.0 7.0 6.7 7.2 7.4 7.3 7.2 7.8 7.6 7.4 8.0 8.5 8.6 9.2 9.7 9.2 9.3 9.6 9.6 9.7 9.6 9.2 9.7 9.6 9.4 9.1 9.0 9.0 9.0 8.3 7.7 6.8
5.5 5.4 6.1 6.2 6.5 6.7 7.2 6.9 6.5 6.0 6.8 8.1 8.0 7.5 7.1 7.0 7.4 7.3 7.2 6.9 6.9 6.8 7.1 7.8 7.9 8.5 9.0 9.1 9.0 9.5 9.6 9.4 8.6 8.2 7.4 9.4 9.6 9.6 9.5 9.2 9.3 9.0 8.7 8.2 7.6
5.3 5.3 5.7 6.7 6.0 6.6 6.9 6.7 6.2 6.3 7.1 8.8 8.9 8.4 7.8 7.5 7.6 7.7 7.3 7.3 7.3 7.3 7.7 7.6 7.9 7.9 8.7 8.7 8.9 9.5 9.7 9.4 7.2 7.3 8.9 9.6 9.3 9.3 9.3 9.4 9.1 8.8 8.4 8.4 8.0
4.9 5.2 6.0 6.7 6.0 6.4 6.3 5.6 6.0 6.8 7.3 9.0 8.8 9.4 9.2 8.3 8.1 8.2 7.9 7.5 7.5 7.5 7.2 7.9 7.9 8.7 9.1 8.8 8.9 9.3 9.5 9.5 9.4 9.6 9.4 9.7 9.1 9.0 9.0 9.1 8.9 8.8 8.9 8.7 8.4
4.7 4.8 6.4 6.3 6.1 6.2 5.6 5.4 6.3 7.5 7.8 8.0 8.4 9.0 9.4 9.4 8.8 8.6 8.6 7.9 7.8 7.8 7.9 8.1 8.1 8.9 9.1 9.4 9.2 9.2 9.6 9.5 9.5 8.2 7.8 9.4 9.5 9.1 8.8 8.9 9.0 8.9 8.9 8.7 8.3
4.5 4.6 6.6 5.9 6.0 5.8 4.9 5.1 7.0 7.5 7.7 7.3 7.6 8.1 8.5 9.0 9.4 9.1 8.5 8.8 8.3 8.2 8.2 8.3 8.3 8.6 9.5 9.2 8.8 9.2 9.5 9.6 9.2 9.4 8.0 7.2 8.6 9.5 9.1 8.8 8.8 8.6 8.5 8.8 8.2
4.4 4.9 5.6 5.3 5.7 5.6 5.4 5.7 7.1 7.4 7.4 7.6 7.5 7.8 8.2 8.4 9.0 9.5 9.4 9.3 9.2 8.9 8.3 8.3 8.7 8.6 8.9 9.5 9.5 9.2 9.1 9.5 9.5 9.3 9.4 9.2 9.0 9.1 9.5 9.0 8.7 8.3 8.3 8.4 7.8
4.1 5.8 6.0 5.5 5.1 5.1 5.3 5.9 6.7 7.1 7.1 7.7 7.7 7.9 8.4 8.5 8.9 9.1 9.1 9.5 9.7 9.6 8.9 8.6 9.0 8.7 9.0 9.3 9.5 9.4 9.2 9.4 9.7 9.6 9.3 8.6 8.8 8.9 8.9 8.5 8.2 7.7 8.1 8.2 7.9
4.5 6.1 7.0 5.7 5.8 5.9 5.6 5.9 6.3 6.8 7.1 7.3 7.9 8.1 8.3 8.6 9.0 8.7 8.8 9.2 9.5 9.7 9.6 9.5 8.9 9.0 8.5 9.0 9.5 9.4 9.5 9.5 9.6 9.6 9.4 9.3 8.9 8.8 9.0 8.9 8.5 7.6 7.8 8.2 8.4
5.0 6.7 5.6 5.4 5.3 5.4 5.8 6.4 6.3 6.5 7.3 7.7 7.7 8.2 8.0 8.2 8.8 8.7 8.7 8.9 9.3 9.6 9.7 9.5 9.5 9.3 9.2 9.2 9.4 9.6 9.4 9.5 9.4 9.2 9.6 9.4 9.1 9.1 8.9 9.0 8.9 8.1 7.7 7.6 7.4
5.6 5.8 5.3 5.0 4.9 4.7 5.1 5.5 6.1 6.7 7.0 7.5 8.0 8.5 8.3 8.3 8.6 8.7 8.7 8.7 8.8 9.1 9.7 9.9 9.6 9.6 9.6 9.3 9.3 9.5 9.8 9.7 9.4 9.3 9.5 9.6 9.5 9.5 9.1 9.3 9.0 8.1 7.8 8.3 7.5
6.2 6.5 5.2 5.6 6.0 5.6 6.1 6.2 6.7 7.3 8.1 7.7 7.6 8.8 8.7 8.7 8.7 8.7 8.8 8.6 8.7 8.9 9.2 9.7 9.7 9.6 9.5 9.3 9.3 9.2 9.7 9.8 9.7 9.7 9.5 9.5 9.5 9.5 9.3 8.9 8.6 8.0 7.8 7.9 7.5
Wind_Speed
24 23 23 24 24 23 23 22 20 19 17 17 15 14 13 14 15 3 7 9 5 12 2 6 8 11 13 12 16 13 9 8 7 15 12 15 16 9 19 25 12 8 21 20 18
25 24 24 24 25 25 24 23 22 21 19 16 15 13 11 9 4 10 12 15 8 12 4 7 12 10 6 11 8 4 2 7 13 14 10 16 17 21 21 21 22 22 21 21 19
26 26 25 24 25 26 25 24 24 22 19 16 13 12 10 6 4 8 19 23 13 11 6 10 14 13 14 8 15 9 6 7 10 11 20 11 20 22 22 18 23 27 25 23 21
26 27 27 26 25 25 26 26 25 24 20 15 12 10 7 4 2 2 5 19 14 7 6 6 9 8 7 8 15 4 9 9 3 17 14 11 15 13 18 20 19 23 24 21 17
27 27 27 27 27 26 26 27 26 24 20 15 10 8 3 4 10 7 10 12 7 5 9 11 10 8 11 8 12 2 7 10 2 18 14 18 13 19 21 22 20 17 17 21 17
28 27 27 28 28 27 27 26 26 24 19 14 5 2 3 6 4 14 9 7 8 8 9 11 9 12 13 16 5 3 7 10 2 16 21 21 12 15 19 20 20 16 13 14 16
28 29 29 28 29 29 28 27 26 24 17 10 3 3 5 14 12 11 11 6 7 9 9 11 16 9 10 16 5 4 2 8 7 8 21 22 11 11 14 16 17 15 13 11 11
29 30 30 30 30 30 31 30 28 21 12 5 2 4 7 9 21 10 10 9 10 11 12 13 11 9 6 9 8 5 3 5 8 12 1 12 6 9 16 15 11 15 13 11 9
30 30 32 32 32 31 32 36 26 14 7 2 2 2 8 2 9 8 10 10 11 10 11 16 10 6 9 7 7 6 7 7 8 13 10 8 4 8 17 16 14 14 12 12 8
30 32 33 34 33 31 34 33 5 4 5 7 8 5 8 13 8 8 9 11 10 9 8 4 3 4 6 2 7 7 6 9 9 11 9 14 11 16 21 20 16 13 12 12 10
32 33 35 35 36 29 16 5 0 1 6 10 8 7 9 14 10 9 11 9 8 5 7 7 2 7 13 15 16 12 13 11 11 9 11 19 19 16 17 19 18 14 12 11 12
32 33 36 39 39 33 6 4 10 9 7 17 21 20 20 13 10 12 11 9 8 8 7 5 10 13 17 18 18 13 10 6 10 10 7 18 17 14 21 22 23 20 16 14 13
31 33 36 41 45 10 6 12 12 17 5 17 17 20 14 15 14 15 13 12 9 10 10 11 11 17 18 17 16 11 7 4 10 8 7 12 6 12 19 21 20 21 22 18 18
31 32 33 41 7 7 7 12 13 17 4 8 10 12 20 9 11 17 16 11 7 14 13 13 19 17 19 16 14 7 6 8 4 6 5 10 5 12 15 12 22 17 15 18 19
32 31 30 22 9 5 9 17 20 5 4 8 22 10 16 20 9 17 20 11 16 10 9 11 15 16 17 16 6 6 7 8 6 5 6 4 5 15 13 11 17 13 16 14 22
33 33 28 10 4 12 19 14 5 1 8 7 11 18 23 18 21 10 20 10 12 15 10 14 13 13 9 5 4 9 7 10 3 2 3 8 7 6 15 18 21 17 19 19 21
35 38 23 11 6 6 13 4 1 6 6 7 14 19 22 17 21 20 19 17 14 10 12 12 19 12 11 5 7 8 2 3 3 2 7 8 3 8 15 15 24 21 24 23 22
38 44 12 10 18 16 4 2 8 10 17 11 14 18 21 17 20 21 18 15 17 17 6 8 11 13 7 8 10 9 8 6 7 5 10 9 6 4 6 11 12 10 19 17 21
40 5 6 9 22 7 3 8 9 10 19 15 12 11 16 22 10 22 18 20 19 21 10 8 10 10 10 6 9 9 9 9 5 4 3 3 5 7 8 9 10 9 11 16 19
9 5 8 12 21 8 5 9 9 14 25 21 15 8 8 21 21 18 20 19 21 23 18 8 4 11 10 7 10 9 6 3 3 2 6 6 4 5 8 8 9 9 8 13 14
3 5 9 12 12 7 11 8 15 20 19 11 22 23 19 15 23 21 19 23 22 20 21 19 7 17 10 10 11 5 3 3 7 6 6 2 5 6 9 9 10 8 8 6 8
5 4 4 3 9 6 10 8 12 21 19 20 20 23 23 23 14 22 23 17 21 19 20 20 5 11 15 9 17 12 10 9 5 6 3 6 6 10 12 10 9 9 8 5 5
5 6 8 7 10 10 12 20 25 23 23 23 22 22 22 22 7 2 9 14 17 22 21 12 14 11 11 8 13 15 9 7 5 5 4 4 4 4 10 10 10 10 9 5 5
4 4 4 2 6 13 17 18 21 23 26 24 24 21 22 20 7 7 13 15 15 22 24 16 10 9 14 8 7 9 8 6 7 4 5 6 8 8 13 10 10 9 9 8 4
3 5 8 6 9 15 15 16 23 22 21 21 23 23 21 16 7 9 13 18 18 17 19 20 10 12 11 13 10 15 16 14 9 7 9 12 14 12 7 11 11 10 9 9 6
4 5 9 13 13 16 13 15 17 22 21 21 22 24 20 17 10 8 10 10 7 8 12 12 7 9 7 16 13 15 17 18 19 12 5 7 6 15 14 11 10 10 10 8 7
4 9 6 8 9 10 11 14 21 21 23 23 23 21 22 21 10 9 14 11 8 5 4 10 7 6 8 9 7 9 8 9 11 11 9 8 7 19 14 12 9 8 9 8 7
Wind_Direction
4 1 357 350 347 344 341 339 338 336 330 324 321 317 316 319 307 247 248 234 209 215 211 282 266 232 245 255 249 248 252 232 142 106 120 108 105 106 122 132 159 101 132 133 143
0 359 356 352 346 341 338 335 334 334 331 326 320 316 312 322 278 252 243 240 167 161 232 266 282 286 264 266 274 230 25 66 123 111 129 121 128 116 109 109 111 118 127 140 141
357 354 353 350 345 340 335 333 331 331 329 325 318 314 306 297 284 244 208 216 173 178 268 293 298 292 286 287 280 281 139 86 99 113 104 103 118 122 121 123 133 141 149 154 158
355 351 348 346 342 338 333 331 328 328 327 323 315 310 309 245 248 58 126 170 167 192 250 269 271 273 300 289 288 46 57 95 51 112 109 105 129 124 127 132 133 145 148 143 144
350 348 344 341 338 335 331 327 325 325 324 321 309 307 271 223 250 138 121 134 150 185 227 231 267 276 263 282 276 141 100 110 83 94 91 95 108 110 116 126 135 146 147 145 158
345 343 340 337 334 331 328 324 322 322 321 321 290 287 242 255 131 145 161 162 182 188 227 242 251 253 272 279 250 153 149 127 171 123 111 87 88 106 126 132 145 154 159 159 165
343 340 337 334 332 329 325 322 318 317 314 321 277 237 258 242 138 158 164 197 204 187 226 237 252 270 293 304 71 333 121 131 152 131 123 86 37 104 132 138 151 155 172 167 161
341 338 335 332 329 327 324 319 312 305 298 301 253 257 254 247 240 177 183 195 218 202 234 258 251 261 276 300 309 221 214 145 184 155 348 101 208 156 144 144 165 167 180 159 160
339 336 333 330 328 327 323 314 307 284 244 172 238 238 263 261 192 181 169 186 205 218 236 254 264 267 315 302 313 245 212 191 178 154 157 107 185 228 155 159 178 177 179 159 162
337 334 332 328 326 327 324 305 274 302 220 203 258 289 253 222 193 184 200 200 196 209 237 261 7 286 298 290 251 229 223 229 175 185 160 129 176 189 168 168 180 179 166 164 165
335 333 330 327 322 326 338 346 222 124 246 206 193 233 302 220 176 179 197 212 189 207 200 220 168 232 244 250 251 263 268 185 181 183 150 154 155 169 178 173 174 173 170 165 170
334 331 330 326 319 318 288 247 266 326 293 228 249 238 255 252 173 190 183 185 176 203 204 244 218 232 239 249 260 265 272 251 148 166 110 157 179 177 186 185 175 167 173 172 172
332 331 330 326 317 302 237 254 287 297 273 276 262 236 242 236 187 195 181 205 178 209 206 215 224 227 245 257 263 271 258 294 149 169 154 149 164 194 205 183 172 175 173 174 177
330 330 332 334 322 344 285 318 308 244 284 257 223 236 236 191 211 186 191 190 207 207 224 222 244 219 230 242 250 269 246 272 228 133 175 157 219 204 198 153 164 180 182 178 174
326 326 328 326 299 286 304 332 324 355 273 238 214 181 194 211 147 213 181 201 224 198 187 241 228 238 235 228 227 230 256 245 279 198 170 227 109 205 185 169 186 198 194 197 178
323 319 327 320 209 247 296 284 323 226 240 264 171 188 183 203 220 199 176 196 229 246 231 226 244 238 242 212 208 247 268 273 216 44 359 240 166 238 188 181 195 194 196 203 181
320 313 308 275 240 285 336 312 283 227 236 261 173 174 184 192 211 219 180 191 212 209 240 240 242 246 230 197 235 230 183 348 16 351 232 253 254 230 199 173 185 191 198 193 178
320 309 260 214 231 265 253 214 220 220 239 266 166 177 185 195 205 221 188 192 214 234 210 222 250 238 212 177 205 229 166 157 196 191 237 251 241 236 118 124 122 135 187 185 171
321 287 269 228 215 235 233 220 204 227 211 241 283 235 201 200 193 217 204 198 200 215 213 207 235 256 217 167 200 250 232 203 197 277 358 244 72 32 110 117 120 125 105 161 165
316 280 254 228 171 180 220 232 237 230 263 284 271 265 279 194 206 202 226 198 200 203 222 254 224 233 229 187 238 172 199 243 348 235 273 252 224 191 146 152 126 116 136 164 180
248 282 269 183 159 177 225 223 241 263 266 275 280 287 276 274 204 211 211 229 192 197 211 237 209 265 219 195 195 265 233 192 167 162 208 253 288 177 148 142 139 152 139 125 154
304 273 314 35 179 191 233 233 248 267 274 266 256 264 278 284 276 213 215 215 197 194 207 218 187 236 248 240 185 193 219 178 135 275 226 160 241 159 143 151 136 130 115 83 60
303 275 283 282 216 226 239 241 245 254 256 263 269 271 266 272 281 228 299 256 191 195 207 206 225 246 281 302 189 192 207 211 175 123 239 128 261 174 123 132 133 130 122 107 95
287 291 245 212 258 247 256 255 253 241 248 255 260 269 275 272 267 283 291 290 274 199 197 191 202 182 233 223 179 181 193 214 180 152 236 204 163 188 178 154 135 128 144 155 152
253 256 337 309 324 326 305 272 269 269 249 237 257 259 263 276 254 252 276 287 290 235 188 193 199 208 232 246 251 186 195 209 216 205 178 235 174 195 163 157 156 144 120 101 108
287 338 340 300 302 303 288 279 277 267 266 270 228 250 257 256 223 239 260 280 255 323 187 187 195 176 233 241 243 251 227 202 215 224 226 209 213 175 173 113 108 115 109 106 95
349 331 298 295 301 292 286 299 303 304 256 261 275 243 247 252 240 256 263 265 266 277 254 163 151 135 216 235 254 270 233 230 207 206 190 208 175 123 113 116 125 121 121 130 120